DW5473 Weather Reports


time (UTC)temp
F
wind
direction
speed
knots
gust
knots
rain 1hr
in
rain 24hr
in
rain mn
in
humidity
%
barometer
mb
20260906152104 76 40 3.5 8.7 0.00 0.00 0.00 76 1021.1
20260906151606 76 108 3.5 8.7 0.00 0.00 0.00 75 1021.1
20260906151105 76 49 3.5 7.8 0.00 0.00 0.00 77 1021.1
20260906150605 76 84 3.5 7.8 0.00 0.00 0.00 79 1021.1
20260906145556 75 68 3.5 8.7 0.00 0.00 0.00 80 1020.9
20260906145056 74 64 3.5 7.8 0.00 0.00 0.00 83 1020.9
20260906144558 74 107 3.5 7.8 0.00 0.00 0.00 85 1020.9
20260906144056 73 118 3.5 6.1 0.00 0.00 0.00 87 1020.9
20260906143557 72 52 3.5 6.1 0.00 0.00 0.00 88 1021.1
20260906143055 72 49 2.6 7.8 0.00 0.00 0.00 89 1021.1
20260906142556 71 80 2.6 7.8 0.00 0.00 0.00 91 1021.1
20260906142056 70 61 2.6 7.8 0.00 0.00 0.00 93 1021.2
20260906141556 70 55 2.6 6.1 0.00 0.00 0.00 94 1021.3
20260906141057 69 72 2.6 6.1 0.00 0.00 0.00 94 1021.2
20260906140557 69 92 2.6 5.2 0.00 0.00 0.00 94 1021.2
20260906135553 68 99 2.6 5.2 0.00 0.00 0.00 95 1021.3
20260906135053 67 64 2.6 5.2 0.00 0.00 0.00 95 1021.3
20260906134554 67 77 2.6 5.2 0.00 0.00 0.00 95 1021.2
20260906134052 67 84 2.6 5.2 0.00 0.00 0.00 95 1021.3
20260906133551 67 60 2.6 5.2 0.00 0.00 0.00 95 1021.5
20260906133052 66 71 2.6 6.1 0.00 0.00 0.00 95 1021.4
20260906132547 66 78 2.6 6.1 0.00 0.00 0.00 95 1021.3
20260906131047 66 82 0.9 3.5 0.00 0.00 0.00 95 1021.2
20260906130039 65 16 0.9 3.5 0.00 0.00 0.00 95 1021.2
20260906125539 65 11 2.6 5.2 0.00 0.00 0.00 95 1021.3
20260906125037 65 1 2.6 5.2 0.00 0.00 0.00 95 1021.1
20260906124036 65 353 0.9 3.5 0.00 0.00 0.00 95 1021.1
20260906123035 64 353 0.9 3.5 0.00 0.00 0.00 95 1021.0
20260906122532 64 349 0.9 3.5 0.00 0.00 0.00 95 1020.8
20260906122034 64 16 0.9 3.5 0.00 0.00 0.00 95 1020.6
20260906121029 64 16 0.0 2.6 0.00 0.00 0.00 95 1020.5
20260906120534 64 16 0.0 2.6 0.00 0.00 0.00 95 1020.4
20260906115528 63 16 0.0 2.6 0.00 0.00 0.00 95 1020.3
20260906115025 63 16 0.0 2.6 0.00 0.00 0.00 94 1020.3
20260906114523 63 6 0.0 2.6 0.00 0.00 0.00 94 1020.3
20260906114023 63 6 0.0 0.9 0.00 0.00 0.00 94 1020.4
20260906113523 63 6 0.0 0.9 0.00 0.00 0.00 94 1020.3
20260906113024 63 6 0.0 2.6 0.00 0.00 0.00 94 1020.2
20260906112023 63 6 0.0 2.6 0.00 0.00 0.00 94 1019.9
20260906111519 63 6 0.0 2.6 0.00 0.00 0.00 94 1019.7
20260906111021 63 6 0.0 2.6 0.00 0.00 0.00 94 1019.7
20260906110519 64 6 0.9 2.6 0.00 0.00 0.00 94 1019.6
20260906110020 64 6 0.9 5.2 0.00 0.00 0.00 94 1019.7
20260906105519 64 6 0.9 5.2 0.00 0.00 0.00 94 1019.8
20260906105020 64 32 0.9 3.5 0.00 0.00 0.00 94 1019.8
20260906104519 64 0 0.9 3.5 0.00 0.00 0.00 94 1019.8
20260906104023 64 1 0.9 3.5 0.00 0.00 0.00 94 1019.9
20260906103517 64 357 2.6 6.1 0.00 0.00 0.00 94 1019.9
20260906103017 64 357 2.6 6.1 0.00 0.00 0.00 94 1019.9
20260906102517 64 6 0.9 3.5 0.00 0.00 0.00 94 1019.8
20260906102018 64 11 0.9 3.5 0.00 0.00 0.00 94 1019.8
20260906100515 64 6 2.6 5.2 0.00 0.00 0.00 93 1019.7
20260906100015 65 358 2.6 5.2 0.00 0.00 0.00 93 1019.7
20260906095515 65 57 0.9 5.2 0.00 0.00 0.00 93 1019.6
20260906095015 65 359 0.9 2.6 0.00 0.00 0.00 93 1019.6
20260906094015 65 352 0.9 5.2 0.00 0.00 0.00 93 1019.3
20260906093515 65 6 0.9 2.6 0.00 0.00 0.00 93 1019.3
20260906093014 65 357 0.9 3.5 0.00 0.00 0.00 93 1019.4
20260906092517 65 359 0.9 5.2 0.00 0.00 0.00 93 1019.3
20260906092015 65 358 0.9 5.2 0.00 0.00 0.00 93 1019.3
20260906091016 66 356 0.9 3.5 0.00 0.00 0.00 92 1019.2
20260906090521 66 355 0.9 3.5 0.00 0.00 0.00 92 1019.2
20260906090018 66 352 0.0 2.6 0.00 0.00 0.00 92 1019.2
20260906085516 66 352 0.0 0.9 0.00 0.00 0.00 92 1019.2
20260906084515 67 352 0.9 2.6 0.00 0.00 0.00 92 1019.2
20260906084015 67 47 0.9 2.6 0.00 0.00 0.00 92 1019.2
20260906083515 67 76 0.9 2.6 0.00 0.00 0.00 92 1019.1
20260906083015 67 78 0.0 0.9 0.00 0.00 0.00 92 1019.2
20260906082515 67 78 0.0 0.9 0.00 0.00 0.00 92 1019.2
20260906082016 67 78 0.0 0.9 0.00 0.00 0.00 92 1019.2
20260906081016 67 78 0.9 3.5 0.00 0.00 0.00 92 1019.2
20260906080510 67 72 0.9 2.6 0.00 0.00 0.00 92 1019.3
20260906080007 67 72 0.9 3.5 0.00 0.00 0.00 92 1019.3
20260906075505 68 74 0.9 3.5 0.00 0.00 0.00 92 1019.2
20260906075004 68 76 0.9 3.5 0.00 0.00 0.00 92 1019.3
20260906074004 68 79 2.6 5.2 0.00 0.00 0.00 92 1019.5
20260906073002 68 80 0.9 5.2 0.00 0.00 0.00 92 1019.5
20260906072506 68 89 2.6 6.1 0.00 0.00 0.00 92 1019.4
20260906072003 68 63 3.5 6.1 0.00 0.00 0.00 92 1019.3
20260906071504 68 46 3.5 6.1 0.00 0.00 0.00 92 1019.5
20260906071005 68 74 2.6 6.1 0.00 0.00 0.00 92 1019.6
20260906070005 68 116 3.5 8.7 0.00 0.00 0.00 92 1019.6
20260906065506 68 86 3.5 8.7 0.00 0.00 0.00 92 1019.7
20260906065004 68 85 3.5 7.8 0.00 0.00 0.00 92 1019.6
20260906064004 68 53 2.6 6.1 0.00 0.00 0.00 92 1019.7
20260906063459 68 54 3.5 7.8 0.00 0.00 0.00 92 1019.7
20260906062449 68 85 2.6 7.8 0.00 0.00 0.00 92 1019.7
20260906061448 68 92 4.3 13.0 0.00 0.00 0.00 92 1019.9
20260906060443 67 85 2.6 11.3 0.00 0.00 0.00 92 1019.8
20260906055940 67 118 0.9 5.2 0.00 0.00 0.00 91 1019.7
20260906055444 67 58 0.9 2.6 0.00 0.00 0.00 91 1019.6
20260906054940 68 58 0.9 3.5 0.00 0.00 0.00 91 1019.6
20260906054441 68 58 0.9 3.5 0.00 0.00 0.00 91 1019.5
20260906053940 68 57 0.9 3.5 0.00 0.00 0.00 91 1019.5
20260906053438 68 59 0.9 3.5 0.00 0.00 0.00 90 1019.3
20260906052939 68 63 0.9 3.5 0.00 0.00 0.00 90 1019.2
20260906052438 68 62 0.9 3.5 0.00 0.00 0.00 90 1019.2
20260906051940 68 16 0.9 3.5 0.00 0.00 0.00 90 1019.2
20260906051447 69 317 0.0 2.6 0.00 0.00 0.00 90 1019.3
20260906050942 69 317 0.0 0.9 0.00 0.00 0.00 89 1019.2
20260906050441 69 317 0.0 0.9 0.00 0.00 0.00 89 1019.2
20260906045939 69 317 0.0 2.6 0.00 0.00 0.00 89 1019.2
20260906044928 69 317 0.9 2.6 0.00 0.00 0.00 89 1019.0
20260906044418 69 317 0.0 2.6 0.00 0.00 0.00 89 1019.0
20260906043911 69 317 0.0 2.6 0.00 0.00 0.00 89 1019.0
20260906042401 69 317 0.9 3.5 0.00 0.00 0.00 89 1019.0
20260906041901 69 65 2.6 5.2 0.00 0.00 0.00 89 1018.8
20260906040902 70 20 2.6 7.8 0.00 0.00 0.00 89 1018.7
20260906040406 70 31 2.6 7.8 0.00 0.00 0.00 89 1018.7
20260906035906 70 72 3.5 7.8 0.00 0.00 0.00 88 1018.7
20260906035410 70 81 2.6 7.8 0.00 0.00 0.00 88 1018.6
20260906034906 70 57 2.6 6.1 0.00 0.00 0.00 88 1018.6
20260906034401 70 37 2.6 5.2 0.00 0.00 0.00 88 1018.5
20260906033902 70 64 2.6 7.8 0.00 0.00 0.00 87 1018.6
20260906033401 70 89 3.5 10.4 0.00 0.00 0.00 88 1018.5
20260906032903 70 56 3.5 10.4 0.00 0.00 0.00 87 1018.4
20260906032404 70 76 3.5 11.3 0.00 0.00 0.00 87 1018.4
20260906031901 71 87 4.3 11.3 0.00 0.00 0.00 87 1018.4
20260906031403 71 120 4.3 8.7 0.00 0.00 0.00 87 1018.4
20260906030902 71 99 4.3 13.0 0.00 0.00 0.00 87 1018.4
20260906030358 71 86 4.3 13.0 0.00 0.00 0.00 86 1018.5
20260906025855 71 123 4.3 13.0 0.00 0.00 0.00 87 1018.3
20260906025355 71 73 5.2 13.9 0.00 0.00 0.00 86 1018.3
20260906024854 71 70 5.2 13.9 0.00 0.00 0.00 86 1018.3
20260906024354 71 89 7.0 13.9 0.00 0.00 0.00 86 1018.2
20260906023855 71 66 7.0 18.2 0.00 0.00 0.00 86 1018.1
20260906023354 71 87 5.2 18.2 0.00 0.00 0.00 85 1018.1
20260906022857 72 115 7.0 16.5 0.00 0.00 0.00 85 1017.8
20260906022356 72 80 7.8 16.5 0.00 0.00 0.00 85 1017.7
20260906021857 72 112 7.8 15.6 0.00 0.00 0.00 84 1017.6
20260906021359 72 91 7.0 15.6 0.00 0.00 0.00 84 1017.5
20260906020855 73 86 5.2 13.0 0.00 0.00 0.00 84 1017.5
20260906020357 73 88 4.3 13.0 0.00 0.00 0.00 84 1017.5
20260906015855 73 84 4.3 13.0 0.00 0.00 0.00 84 1017.5
20260906015353 73 110 4.3 13.0 0.00 0.00 0.00 84 1017.4
20260906014852 73 103 4.3 13.0 0.00 0.00 0.00 84 1017.3
20260906014347 74 102 4.3 8.7 0.00 0.00 0.00 84 1017.2
20260906013841 74 70 4.3 15.6 0.00 0.00 0.00 84 1017.3
20260906013332 74 122 5.2 15.6 0.00 0.00 0.00 84 1017.1
20260906012833 74 116 4.3 11.3 0.00 0.00 0.00 84 1017.3
20260906010830 75 89 5.2 16.5 0.00 0.00 0.00 83 1017.4
20260906010331 75 88 5.2 15.6 0.00 0.00 0.00 84 1017.3
20260906005833 75 98 4.3 13.0 0.00 0.00 0.00 84 1017.2
20260906005331 76 86 4.3 10.4 0.00 0.00 0.00 84 1017.2
20260906004833 76 91 3.5 10.4 0.00 0.00 0.00 83 1017.2
20260906003831 76 74 2.6 6.1 0.00 0.00 0.00 82 1017.2
20260906003328 76 47 0.9 5.2 0.00 0.00 0.00 81 1017.2
20260906002829 77 20 0.9 5.2 0.00 0.00 0.00 80 1017.1
20260906002331 77 6 0.9 5.2 0.00 0.00 0.00 80 1017.1
20260906001829 77 351 0.9 6.1 0.00 0.00 0.00 79 1017.1
20260906001328 77 351 0.9 6.1 0.00 0.00 0.00 79 1017.1
20260906000831 78 342 0.9 5.2 0.00 0.00 0.00 78 1017.1
20260906000330 78 330 0.9 5.2 0.00 0.00 0.00 78 1017.1
20260905235830 78 6 0.9 5.2 0.00 0.00 0.00 77 1017.1
20260905235329 78 11 2.6 5.2 0.00 0.00 0.00 77 1017.2
20260905234830 79 357 2.6 7.8 0.00 0.00 0.00 76 1017.2
20260905234330 79 338 2.6 7.8 0.00 0.00 0.00 75 1017.1
20260905233331 80 355 2.6 6.1 0.00 0.00 0.00 75 1017.1
20260905232831 80 26 2.6 7.8 0.00 0.00 0.00 74 1017.1
20260905231830 80 16 2.6 6.1 0.00 0.00 0.00 74 1017.0
20260905231328 80 355 2.6 10.4 0.00 0.00 0.00 75 1017.0
20260905230828 80 347 3.5 10.4 0.00 0.00 0.00 74 1017.0
20260905230329 80 6 3.5 11.3 0.00 0.00 0.00 74 1017.0
20260905225830 80 349 3.5 11.3 0.00 0.00 0.00 74 1016.9
20260905225330 80 32 3.5 10.4 0.00 0.00 0.00 73 1016.8
20260905224829 81 36 3.5 10.4 0.00 0.00 0.00 73 1016.8
20260905224329 81 51 3.5 10.4 0.00 0.00 0.00 73 1016.8
20260905223829 81 6 3.5 11.3 0.00 0.00 0.00 73 1016.6
20260905223331 81 45 3.5 11.3 0.00 0.00 0.00 73 1016.7
20260905222831 81 28 4.3 11.3 0.00 0.00 0.00 72 1016.7
20260905222329 81 6 3.5 11.3 0.00 0.00 0.00 71 1016.7
20260905221829 81 353 3.5 7.8 0.00 0.00 0.00 72 1016.7
20260905220334 80 357 3.5 10.4 0.00 0.00 0.00 74 1016.6
20260905215831 80 6 3.5 7.8 0.00 0.00 0.00 74 1016.7
20260905214830 81 6 4.3 10.4 0.00 0.00 0.00 75 1016.6
20260905214330 81 69 3.5 8.7 0.00 0.00 0.00 75 1016.5
20260905213831 81 16 3.5 13.0 0.00 0.00 0.00 74 1016.6
20260905213330 81 42 3.5 13.0 0.00 0.00 0.00 74 1016.6
20260905212830 80 83 3.5 7.8 0.00 0.00 0.00 75 1016.5
20260905212329 80 73 2.6 7.8 0.00 0.00 0.00 76 1016.6
20260905211831 80 51 2.6 5.2 0.00 0.00 0.00 77 1016.6
20260905211330 79 35 3.5 8.7 0.00 0.00 0.00 79 1016.6
20260905210829 79 355 3.5 11.3 0.00 0.00 0.00 78 1016.6
20260905210329 79 69 3.5 11.3 0.00 0.00 0.00 78 1016.7
20260905205329 79 24 3.5 10.4 0.00 0.00 0.00 78 1016.6
20260905204829 79 68 3.5 10.4 0.00 0.00 0.00 78 1016.8
20260905204334 79 78 3.5 8.7 0.00 0.00 0.00 78 1016.7
20260905203829 79 57 2.6 7.8 0.00 0.00 0.00 79 1017.0
20260905202828 78 74 3.5 7.8 0.00 0.00 0.00 81 1017.0
20260905202329 78 352 3.5 6.1 0.00 0.00 0.00 81 1017.0
20260905201829 78 57 2.6 7.8 0.00 0.00 0.00 81 1017.1
20260905200833 78 24 3.5 10.4 0.00 0.00 0.00 81 1017.2
20260905200327 78 34 2.6 10.4 0.00 0.00 0.00 81 1017.1
20260905195823 78 11 2.6 11.3 0.00 0.00 0.00 81 1017.2
20260905194826 78 16 2.6 10.4 0.00 0.00 0.00 81 1017.1
20260905193821 79 78 3.5 10.4 0.00 0.00 0.00 81 1017.1
20260905193320 79 358 2.6 10.4 0.00 0.00 0.00 82 1017.2
20260905192822 79 51 2.6 10.4 0.00 0.00 0.00 81 1017.2
20260905192320 79 51 3.5 10.4 0.00 0.00 0.00 81 1017.2
20260905191818 79 73 3.5 8.7 0.00 0.00 0.00 82 1017.0
20260905191317 78 6 3.5 11.3 0.00 0.00 0.00 82 1017.0
20260905190314 79 72 2.6 6.1 0.00 0.00 0.00 82 1017.0
20260905185817 79 70 3.5 7.8 0.00 0.00 0.00 81 1017.1
20260905185315 79 16 3.5 11.3 0.00 0.00 0.00 82 1016.9
20260905183814 79 350 3.5 13.0 0.00 0.00 0.00 82 1017.1
20260905183317 78 33 3.5 13.0 0.00 0.00 0.00 82 1017.2
20260905182810 79 6 3.5 13.0 0.00 0.00 0.00 82 1017.2
20260905182311 79 349 3.5 13.0 0.00 0.00 0.00 81 1017.2
20260905181814 79 37 3.5 11.3 0.00 0.00 0.00 82 1017.2
20260905181309 79 86 3.5 11.3 0.00 0.00 0.00 81 1017.2
20260905180810 79 80 3.5 11.3 0.00 0.00 0.00 81 1017.3
20260905180310 79 347 3.5 7.8 0.00 0.00 0.00 82 1017.2
20260905175804 79 65 3.5 10.4 0.00 0.00 0.00 82 1017.2
20260905175306 79 353 4.3 13.0 0.00 0.00 0.00 81 1017.3
20260905174304 80 44 3.5 8.7 0.00 0.00 0.00 81 1017.3
20260905173803 80 90 3.5 8.7 0.00 0.00 0.00 81 1017.1
20260905173304 80 71 3.5 10.4 0.00 0.00 0.00 80 1017.1
20260905172807 80 349 3.5 10.4 0.00 0.00 0.00 80 1017.2
20260905172312 81 351 3.5 11.3 0.00 0.00 0.00 80 1017.1
20260905171807 81 70 4.3 11.3 0.00 0.00 0.00 80 1017.1
20260905170802 81 6 4.3 16.5 0.00 0.00 0.00 80 1017.0
20260905170303 81 67 4.3 16.5 0.00 0.00 0.00 80 1017.2
20260905165300 81 86 3.5 10.4 0.00 0.00 0.00 80 1017.4
20260905164751 80 26 3.5 8.7 0.00 0.00 0.00 81 1017.3
20260905164242 80 2 3.5 6.1 0.00 0.00 0.00 81 1017.2
20260905163739 80 338 3.5 6.1 0.00 0.00 0.00 82 1017.1
20260905163232 80 349 2.6 8.7 0.00 0.00 0.00 82 1017.2
20260905162732 81 316 3.5 8.7 0.00 0.00 0.00 81 1017.2
20260905162232 81 6 3.5 10.4 0.00 0.00 0.00 82 1017.3
20260905161734 80 85 3.5 10.4 0.00 0.00 0.00 82 1017.2
20260905161234 80 354 2.6 7.8 0.00 0.00 0.00 81 1017.2
20260905160732 80 347 2.6 7.8 0.00 0.00 0.00 83 1017.3
20260905160232 80 340 2.6 7.8 0.00 0.00 0.00 82 1017.3
20260905155733 80 6 2.6 7.8 0.00 0.00 0.00 81 1017.2
20260905155235 80 70 2.6 7.8 0.00 0.00 0.00 84 1017.3
20260905154735 80 51 3.5 7.8 0.00 0.00 0.00 83 1017.2
20260905154242 79 87 3.5 10.4 0.00 0.00 0.00 83 1017.3
20260905153733 79 6 3.5 10.4 0.00 0.00 0.00 83 1017.3
20260905153233 78 358 3.5 8.7 0.00 0.00 0.00 84 1017.2
20260905152731 79 78 3.5 8.7 0.00 0.00 0.00 84 1017.2
20260905152231 78 334 2.6 6.1 0.00 0.00 0.00 84 1017.2